PDT,Max TemperatureF,Mean TemperatureF,Min TemperatureF,Max Dew PointF,MeanDew PointF,Min DewpointF,Max Humidity, Mean Humidity, Min Humidity, Max Sea Level PressureIn, Mean Sea Level PressureIn, Min Sea Level PressureIn, Max VisibilityMiles, Mean VisibilityMiles, Min VisibilityMiles, Max Wind SpeedMPH, Mean Wind SpeedMPH, Max Gust SpeedMPH,PrecipitationIn, CloudCover, Events, WindDirDegrees
2011-9-1,75,52,29,37,29,17,92,53,13,30.21,30.14,30.09,10,8,4,10,3,16,0.00,0,,112
2011-9-2,80,59,38,37,24,12,59,34,8,30.16,30.12,30.08,10,10,8,17,5,23,0.00,0,,8
2011-9-3,81,58,34,31,28,22,64,38,12,30.22,30.11,30.01,10,10,10,15,5,18,0.00,0,,306
2011-9-4,93,63,33,34,30,24,64,38,11,30.08,29.95,29.85,10,10,10,14,5,18,0.00,0,,318
2011-9-5,88,69,50,42,37,32,52,34,16,30.02,29.93,29.87,10,10,10,17,4,23,0.00,0,Rain,305
2011-9-6,91,68,45,41,37,34,71,43,15,30.16,30.09,30.03,10,10,9,16,6,20,0.00,0,,281
2011-9-7,92,68,44,39,36,34,61,38,15,30.18,30.09,30.02,10,10,9,16,5,21,0.00,0,,324
2011-9-8,92,72,52,39,36,34,46,30,14,30.14,30.10,30.05,10,10,10,20,6,29,0.00,0,,352
2011-9-9,94,72,50,37,34,28,54,32,10,30.24,30.10,29.99,10,10,10,18,6,29,0.00,0,,294
2011-9-10,92,68,44,36,33,29,50,31,11,30.08,29.97,29.87,10,10,10,15,5,22,0.00,0,,277
2011-9-11,95,69,43,43,35,27,58,34,9,29.99,29.90,29.83,10,10,6,13,5,17,0.00,0,,311
2011-9-12,92,72,51,52,42,35,60,37,14,30.10,30.00,29.93,10,8,5,15,4,18,0.00,0,,307
2011-9-13,91,69,46,49,40,27,86,48,10,30.14,30.03,29.96,10,10,6,14,4,16,0.00,0,,45
2011-9-14,87,68,49,50,45,41,71,46,21,30.01,29.89,29.79,10,10,10,20,6,25,T,1,,308
2011-9-15,68,53,38,48,41,36,96,64,32,30.00,29.92,29.83,10,9,5,20,8,25,0.00,1,,301
2011-9-16,69,52,34,40,37,34,92,60,28,30.03,29.99,29.93,10,9,5,17,6,24,0.00,0,,188
2011-9-17,70,51,31,39,35,30,89,58,26,30.11,30.08,30.04,10,10,10,14,5,18,0.00,2,,85
2011-9-18,81,61,40,46,41,35,76,51,26,30.22,30.13,30.08,10,10,10,16,5,22,0.00,1,,345
2011-9-19,80,61,41,45,41,31,89,53,17,30.18,30.10,30.04,10,10,10,14,5,17,0.00,0,,308
2011-9-20,80,58,35,44,39,34,100,62,24,30.18,30.11,30.05,10,10,10,13,5,15,0.00,0,,313
2011-9-21,88,62,35,38,33,28,76,45,14,30.13,30.05,29.97,10,10,10,12,3,16,0.00,0,,333
2011-9-22,88,66,43,37,33,28,60,36,12,30.11,30.04,29.99,10,10,10,15,4,17,0.00,0,,156
2011-9-23,94,68,41,35,31,27,53,32,10,30.15,30.03,29.92,10,10,10,21,5,30,0.00,0,,151
2011-9-24,94,67,40,42,32,26,53,32,10,29.95,29.79,29.65,10,10,10,24,6,30,0.00,0,,187
2011-9-25,68,53,38,44,39,33,85,57,29,30.03,29.85,29.62,10,10,10,22,7,26,0.00,1,,308
2011-9-26,78,58,38,44,39,34,85,56,27,30.06,30.00,29.95,10,10,10,18,7,30,0.00,0,,173
2011-9-27,69,57,45,46,43,39,77,61,44,30.24,30.10,29.98,10,10,10,21,7,26,0.00,1,,1
2011-9-28,69,57,45,41,37,32,77,54,31,30.32,30.24,30.16,10,10,10,17,6,21,0.00,3,,317
2011-9-29,77,55,32,38,33,28,82,54,25,30.18,30.06,29.93,10,10,10,13,4,16,0.00,0,,273
2011-9-30,91,66,40,45,37,32,70,43,15,30.00,29.85,29.71,10,10,10,22,6,28,0.00,0,,249